Wind_Speed
6 5 5 4 4 4 3 2 2 2 2 2 2 3 3 5 5 5 4 5 5 5 5 5 5 5 6 7 8 9 9 10 11 11 11 12 12 12 13 13 13 14 14
6 6 5 5 5 5 4 3 3 2 2 2 3 3 4 5 5 4 4 5 5 5 5 6 6 7 7 8 8 9 10 10 11 12 12 12 13 13 14 15 15 14 14
7 5 5 5 5 5 5 4 4 3 3 2 2 3 4 5 4 4 4 5 6 6 6 7 8 8 8 8 9 10 10 10 11 12 13 13 13 14 15 16 16 16 16
7 6 6 6 5 5 6 5 5 4 4 4 4 4 4 4 5 5 5 6 7 7 8 7 8 9 9 9 11 11 11 11 11 12 13 14 14 15 16 17 17 17 17
7 7 8 7 6 5 5 5 5 5 5 4 4 4 4 5 5 5 6 6 7 8 8 8 8 9 10 11 11 12 13 12 13 14 14 15 15 16 17 18 18 18 18
7 7 8 8 8 7 6 6 5 6 6 5 5 5 5 6 7 7 7 8 8 8 9 9 10 10 10 11 12 13 13 14 14 15 15 16 16 16 17 18 19 19 19
8 8 8 8 8 8 7 7 7 7 7 6 7 7 7 8 8 8 9 9 9 9 10 11 11 11 12 12 13 14 15 15 15 16 16 17 17 17 18 18 19 19 20
9 9 9 9 8 8 8 8 7 7 7 7 8 8 8 9 9 10 10 10 10 11 12 12 13 13 13 14 15 16 16 16 16 16 16 17 18 18 18 18 19 20 20
10 10 10 11 10 9 9 8 8 8 8 8 9 9 9 10 10 11 11 11 11 12 13 13 14 15 15 15 15 16 17 17 17 17 17 17 17 18 18 18 19 19 20
10 11 11 11 11 11 10 9 9 9 10 10 11 11 11 12 11 11 11 12 12 13 13 14 15 16 16 17 17 17 17 18 18 18 18 17 18 18 20 19 20 20 20
11 12 12 11 12 12 11 11 11 11 11 11 12 12 12 13 13 12 12 12 13 14 14 15 16 16 18 18 18 17 17 17 17 18 19 19 18 18 20 20 21 21 21
13 13 14 13 13 14 13 13 13 13 13 13 14 14 14 14 14 14 14 14 15 15 16 17 17 18 18 18 19 18 18 18 18 19 19 20 19 18 19 20 21 21 22
14 14 14 14 14 15 14 14 14 15 15 16 16 15 15 14 15 15 16 16 16 17 18 18 18 19 20 19 20 20 20 20 20 20 20 20 20 20 20 21 21 21 22
16 16 16 16 16 16 15 15 15 16 16 17 17 16 15 16 16 17 17 17 17 19 19 20 20 20 21 22 22 21 21 21 21 21 21 22 22 21 22 22 22 22 22
18 17 17 17 17 17 17 17 17 17 17 17 17 18 18 18 19 18 19 19 19 20 20 21 21 22 22 23 23 22 22 22 22 23 23 23 23 23 22 23 24 24 24
19 19 18 18 19 19 19 19 18 19 19 18 19 19 20 20 20 21 20 21 21 21 21 23 23 23 24 24 24 23 23 23 23 23 24 24 25 25 24 24 25 26 26
20 20 19 20 20 21 21 20 20 20 20 20 20 21 21 21 22 23 23 23 23 23 23 23 24 25 26 26 25 25 25 25 26 25 25 25 26 26 25 25 25 26 27
22 21 21 21 21 22 22 22 21 22 22 22 22 23 22 23 24 24 25 25 25 25 25 24 25 25 26 26 26 27 26 26 27 27 27 27 26 26 26 26 26 27 28
23 24 24 23 23 23 24 23 23 23 24 24 24 24 25 25 25 26 26 27 27 27 26 26 25 25 25 25 26 27 27 27 27 27 27 27 27 27 28 28 27 27 27
24 24 24 24 24 24 24 24 24 25 26 26 26 26 26 27 27 27 27 27 27 27 26 25 25 25 25 25 26 27 27 27 27 28 28 28 28 27 28 28 28 27 27
25 25 25 24 24 24 25 25 26 27 27 27 27 27 28 28 28 28 27 27 27 27 26 26 26 26 26 26 27 27 27 26 27 27 27 28 28 28 27 26 26 27 26
24 25 25 25 25 25 26 26 27 27 28 27 28 28 29 28 28 28 28 27 27 27 27 27 27 27 27 27 27 27 27 27 27 28 28 28 28 28 27 27 26 26 26
26 26 26 26 26 26 27 27 27 28 28 28 29 29 29 29 29 28 27 27 27 28 28 28 28 28 28 28 27 27 27 27 27 26 27 27 28 28 28 28 27 27 27
27 27 26 27 27 27 27 28 28 28 29 29 29 29 29 29 29 29 29 29 28 29 29 28 28 28 28 27 27 27 27 26 26 26 26 26 27 28 28 28 28 27 28
28 28 28 28 28 28 29 29 28 28 29 29 29 29 29 28 28 29 29 29 29 29 29 28 28 28 27 27 27 27 26 26 26 26 27 27 27 27 28 27 27 27 28
29 29 30 30 29 30 30 30 30 29 29 29 29 29 29 28 29 29 30 30 30 29 28 28 28 28 27 27 27 27 27 27 27 26 27 27 27 27 27 27 28 27 27
Wind_Direction
52 54 43 41 37 30 29 33 43 18 353 333 306 311 313 322 317 299 289 287 286 284 270 252 254 260 266 267 267 265 263 262 261 258 257 256 255 253 250 246 247 250 247
54 48 41 36 39 35 34 36 21 13 4 339 325 336 332 329 323 322 301 292 290 292 285 274 268 269 269 270 272 270 269 265 261 260 259 258 257 255 255 252 250 249 246
46 42 37 33 32 31 24 17 359 359 1 355 347 340 335 335 328 319 310 303 299 297 293 282 277 273 274 274 273 274 273 269 262 259 259 260 259 258 259 254 252 252 251
40 33 27 29 29 24 16 9 6 356 356 2 359 349 342 336 328 324 317 309 303 298 294 287 276 272 276 277 279 277 272 268 266 266 263 262 262 259 257 256 255 255 253
32 25 23 22 19 14 4 358 359 359 352 350 348 343 335 328 326 323 318 309 301 299 296 293 290 283 280 282 282 281 276 272 272 270 268 266 266 263 259 256 256 256 255
27 20 14 9 5 2 354 346 349 353 349 336 328 327 320 315 312 311 308 304 299 300 297 297 296 292 290 286 286 282 278 273 272 270 268 266 265 265 262 256 257 257 256
14 7 2 357 352 348 346 343 338 339 338 331 323 317 312 309 306 302 302 300 296 296 296 296 296 293 293 290 287 286 284 276 271 269 269 268 267 268 263 258 257 259 258
357 352 346 343 340 339 336 335 332 331 325 321 320 319 315 305 298 296 296 296 294 293 297 298 296 294 293 292 290 289 288 281 274 270 269 269 268 267 264 259 260 260 257
349 344 337 332 330 328 326 325 326 324 318 315 314 313 313 310 304 301 297 296 294 293 293 295 296 294 291 292 293 290 290 285 276 270 269 269 269 269 266 263 261 258 257
338 337 333 326 324 323 320 317 314 315 312 310 309 308 307 306 299 297 296 295 295 293 293 293 295 294 291 291 293 291 289 288 280 273 272 271 271 269 266 265 262 261 258
332 329 327 325 322 321 318 314 312 307 307 308 310 310 309 305 301 300 296 294 294 293 293 294 294 294 292 292 292 291 290 288 284 279 277 275 274 271 267 266 266 264 262
326 324 324 322 318 319 317 313 309 308 308 307 307 308 307 305 302 299 296 296 294 292 291 294 295 294 293 292 291 290 289 287 284 281 280 278 276 275 271 269 269 267 265
321 320 319 321 321 320 317 310 308 308 308 307 305 305 304 303 303 301 299 294 293 291 290 292 294 295 295 294 293 290 288 286 284 281 278 276 276 275 273 272 271 270 270
317 316 315 315 318 318 316 311 310 308 307 308 305 304 305 305 304 303 301 299 295 293 292 293 294 293 293 293 293 290 288 286 284 282 279 276 275 275 273 271 270 269 270
311 310 308 308 310 311 310 307 308 307 306 306 305 303 304 304 302 302 300 297 295 294 292 292 291 291 291 290 290 288 287 286 284 283 281 278 277 276 273 270 270 269 270
308 307 304 304 305 305 305 303 303 302 302 302 303 304 304 305 303 302 298 297 296 295 293 290 290 290 291 290 288 287 287 286 284 284 283 281 278 277 275 273 270 269 270
304 303 302 302 301 301 302 301 300 301 301 302 303 303 304 305 303 301 299 296 295 295 294 292 290 289 289 288 287 286 286 287 286 283 282 281 280 279 277 275 272 271 270
304 302 302 301 299 299 300 299 300 300 300 301 301 302 303 304 304 302 299 298 297 295 293 293 293 292 290 288 286 286 286 287 285 283 281 280 278 278 277 275 272 271 269
302 302 303 299 298 297 298 298 299 301 300 299 300 301 301 302 302 301 299 298 297 296 294 294 295 294 291 289 288 287 287 286 283 282 280 280 280 279 277 276 274 271 269
303 302 303 303 301 298 297 298 299 300 300 299 298 298 299 300 300 300 299 297 296 296 296 297 297 297 294 293 290 289 289 286 283 282 281 281 281 280 278 276 273 272 271
304 303 304 304 303 301 299 298 298 299 299 299 299 298 298 299 299 297 297 296 296 295 296 297 297 297 296 294 293 291 290 288 286 283 282 281 281 282 280 278 275 274 273
305 304 303 303 303 302 300 299 299 300 301 300 300 298 297 296 297 296 296 296 296 295 295 296 295 295 295 295 295 293 291 290 289 286 283 282 282 282 280 278 277 276 275
304 303 303 301 301 301 300 299 299 300 300 300 299 297 296 295 295 294 294 295 296 296 295 295 295 295 295 294 293 294 293 291 290 288 286 283 282 282 280 277 276 276 274
303 302 302 301 300 300 300 300 299 299 299 300 299 298 297 295 294 293 293 294 295 297 297 295 295 294 295 295 295 296 295 293 290 287 286 285 282 280 279 278 276 276 273
302 300 300 300 300 300 300 299 299 300 300 300 300 299 298 297 296 296 295 296 296 296 296 295 294 295 295 295 295 295 294 293 292 289 287 286 283 280 277 277 277 275 273
301 300 300 299 299 300 299 297 299 300 300 300 300 299 298 297 296 296 297 297 297 296 297 296 294 294 295 294 293 293 292 292 291 289 288 287 285 283 279 276 276 275 273
Height
5864 5863 5863 5863 5862 5862 5862 5862 5861 5862 5862 5862 5861 5861 5860 5859 5858 5857 5857 5857 5857 5857 5857 5857 5857 5857 5857 5857 5858 5858 5858 5858 5858 5859 5860 5860 5861 5861 5862 5863 5864 5865 5866
5865 5864 5864 5863 5863 5862 5862 5862 5862 5862 5862 5861 5861 5860 5860 5859 5858 5857 5857 5857 5857 5856 5855 5855 5856 5856 5855 5855 5855 5855 5855 5855 5856 5856 5857 5857 5858 5858 5859 5860 5861 5862 5863
5866 5865 5865 5864 5864 5863 5863 5862 5862 5862 5861 5861 5860 5860 5859 5858 5857 5857 5856 5856 5855 5855 5854 5854 5854 5854 5853 5853 5853 5853 5853 5852 5853 5853 5854 5854 5855 5855 5855 5856 5857 5858 5859
5867 5867 5866 5865 5864 5864 5863 5863 5862 5861 5861 5860 5860 5860 5859 5858 5857 5856 5856 5855 5854 5854 5853 5852 5852 5852 5851 5851 5850 5850 5850 5850 5850 5850 5850 5851 5851 5852 5852 5852 5853 5854 5855
5868 5868 5867 5866 5865 5864 5864 5863 5862 5861 5860 5860 5859 5859 5859 5858 5857 5856 5855 5854 5853 5852 5852 5851 5850 5850 5849 5848 5848 5847 5847 5847 5847 5847 5847 5847 5847 5847 5848 5848 5849 5850 5851
5869 5868 5867 5866 5865 5865 5864 5863 5861 5860 5860 5859 5858 5858 5857 5857 5856 5855 5854 5853 5852 5851 5850 5849 5848 5847 5847 5846 5845 5844 5844 5843 5843 5843 5843 5843 5843 5843 5843 5844 5844 5845 5846
5869 5868 5867 5866 5865 5864 5863 5862 5861 5860 5859 5858 5857 5857 5856 5855 5854 5853 5852 5851 5850 5849 5848 5847 5846 5845 5844 5843 5841 5840 5839 5839 5839 5839 5839 5838 5838 5838 5838 5839 5840 5840 5841
5869 5868 5867 5866 5865 5864 5862 5861 5860 5859 5858 5857 5856 5855 5854 5854 5852 5851 5850 5848 5848 5847 5846 5844 5843 5842 5841 5839 5838 5837 5835 5834 5834 5834 5834 5834 5834 5833 5833 5833 5834 5835 5836
5869 5868 5866 5865 5864 5862 5861 5860 5859 5858 5857 5856 5855 5854 5853 5851 5850 5849 5847 5846 5845 5844 5843 5841 5840 5838 5837 5836 5834 5833 5831 5829 5828 5828 5829 5829 5828 5828 5828 5828 5828 5829 5830
5868 5867 5865 5863 5862 5861 5860 5859 5858 5856 5855 5854 5853 5851 5850 5849 5848 5846 5845 5844 5842 5841 5840 5838 5837 5835 5833 5832 5830 5828 5826 5824 5823 5823 5823 5823 5823 5823 5823 5823 5823 5823 5824
5867 5865 5864 5862 5861 5860 5858 5857 5855 5854 5853 5852 5850 5849 5848 5846 5844 5843 5842 5841 5839 5837 5836 5834 5833 5831 5830 5828 5826 5824 5822 5820 5819 5819 5819 5818 5818 5818 5817 5817 5817 5818 5818
5866 5864 5862 5860 5859 5858 5856 5855 5853 5851 5850 5849 5847 5846 5844 5843 5841 5840 5838 5837 5835 5833 5831 5830 5828 5827 5825 5823 5821 5820 5818 5816 5815 5814 5813 5813 5813 5812 5811 5811 5811 5812 5812
5864 5862 5860 5858 5856 5855 5853 5852 5850 5849 5847 5846 5844 5843 5841 5839 5837 5836 5835 5833 5831 5829 5827 5826 5824 5822 5820 5818 5816 5815 5813 5811 5810 5809 5808 5808 5807 5806 5806 5805 5805 5806 5806
5861 5859 5857 5856 5854 5852 5850 5849 5847 5845 5844 5842 5840 5839 5837 5835 5833 5832 5830 5829 5827 5825 5823 5821 5819 5817 5815 5812 5811 5809 5807 5806 5805 5803 5802 5802 5801 5800 5799 5799 5800 5800 5800
5858 5856 5854 5852 5850 5849 5847 5845 5843 5842 5840 5838 5836 5835 5833 5831 5829 5827 5825 5824 5823 5820 5818 5816 5814 5811 5809 5807 5805 5803 5802 5800 5799 5798 5796 5795 5794 5793 5793 5792 5793 5793 5793
5854 5852 5850 5848 5846 5845 5843 5841 5839 5837 5835 5834 5832 5830 5828 5826 5824 5822 5820 5818 5817 5815 5813 5810 5808 5805 5803 5801 5799 5797 5796 5794 5792 5791 5790 5788 5787 5786 5786 5785 5785 5785 5785
5849 5847 5845 5844 5842 5840 5838 5836 5834 5832 5830 5829 5827 5825 5823 5821 5819 5817 5814 5812 5810 5808 5806 5804 5801 5799 5796 5794 5792 5791 5789 5787 5786 5784 5783 5781 5780 5779 5778 5778 5777 5777 5777
5845 5842 5840 5838 5836 5834 5833 5831 5829 5827 5825 5823 5821 5819 5817 5815 5813 5810 5808 5806 5803 5801 5799 5797 5794 5792 5789 5787 5785 5783 5782 5780 5778 5777 5775 5774 5772 5771 5771 5770 5769 5768 5768
5840 5837 5835 5832 5830 5829 5827 5825 5823 5821 5819 5817 5815 5813 5811 5808 5806 5804 5801 5799 5796 5794 5792 5789 5787 5785 5782 5780 5778 5776 5774 5772 5771 5769 5767 5766 5764 5763 5762 5761 5760 5760 5760
5834 5831 5829 5826 5824 5822 5821 5819 5817 5815 5812 5810 5808 5806 5804 5802 5800 5797 5795 5792 5790 5787 5784 5782 5780 5778 5776 5773 5771 5769 5767 5764 5763 5761 5759 5758 5757 5755 5754 5753 5752 5752 5751
5828 5826 5824 5821 5818 5816 5814 5813 5810 5808 5805 5803 5801 5799 5797 5795 5792 5790 5787 5785 5783 5780 5778 5775 5773 5771 5769 5766 5764 5761 5759 5756 5755 5753 5752 5750 5749 5747 5746 5745 5744 5744 5743
5823 5820 5818 5815 5813 5810 5808 5806 5803 5801 5798 5796 5794 5792 5790 5788 5785 5782 5780 5778 5776 5773 5771 5768 5766 5764 5761 5759 5756 5753 5751 5749 5748 5746 5744 5742 5741 5739 5738 5738 5737 5737 5736
5817 5814 5811 5809 5807 5804 5802 5799 5797 5794 5792 5789 5787 5785 5782 5780 5777 5775 5772 5770 5768 5765 5763 5760 5758 5755 5753 5751 5749 5746 5743 5741 5740 5738 5736 5734 5733 5732 5731 5730 5729 5729 5729
5810 5807 5805 5802 5800 5797 5795 5792 5790 5787 5785 5782 5779 5777 5774 5772 5769 5767 5765 5762 5760 5757 5755 5752 5750 5748 5746 5743 5741 5739 5736 5733 5732 5730 5728 5727 5725 5724 5723 5722 5721 5721 5721
5803 5800 5798 5795 5793 5790 5787 5785 5782 5780 5777 5774 5772 5769 5766 5764 5761 5759 5757 5754 5752 5749 5746 5744 5742 5739 5737 5735 5733 5730 5728 5726 5724 5722 5720 5719 5717 5716 5715 5714 5713 5713 5712
5796 5793 5790 5788 5785 5782 5780 5777 5774 5771 5769 5767 5764 5761 5758 5756 5753 5750 5748 5746 5744 5741 5738 5736 5734 5731 5729 5727 5725 5723 5720 5718 5716 5714 5712 5711 5709 5708 5707 5706 5705 5704 5704